Time,TemperatureF,DewpointF,PressureIn,WindDirection,WindDirectionDegrees,WindSpeedMPH,WindSpeedGustMPH,Humidity,HourlyPrecipIn,Conditions,Clouds,dailyrainin,SoftwareType,DateUTC
2013-05-29 00:01:00,51.0,51.0,-100.00,ENE,74,0.0,0.0,100,0.00,,,0.00,,2013-05-29 07:01:00,
2013-05-29 00:11:00,51.0,51.0,-100.00,ENE,74,0.0,0.0,100,0.00,,,0.00,,2013-05-29 07:11:00,
2013-05-29 00:21:00,51.0,51.0,-100.00,ENE,74,0.0,0.0,100,0.00,,,0.00,,2013-05-29 07:21:00,
2013-05-29 00:34:00,51.0,51.0,-100.00,ENE,74,0.0,0.0,100,0.00,,,0.00,,2013-05-29 07:34:00,
2013-05-29 00:41:00,51.0,51.0,-100.00,ENE,74,0.0,0.0,100,0.00,,,0.00,,2013-05-29 07:41:00,
2013-05-29 00:52:00,51.0,51.0,-100.00,ENE,74,0.0,0.0,100,0.00,,,0.00,,2013-05-29 07:52:00,
2013-05-29 01:02:00,51.0,51.0,-100.00,ENE,74,0.0,0.0,100,0.00,,,0.00,,2013-05-29 08:02:00,
2013-05-29 01:11:00,51.0,51.0,-100.00,ENE,74,0.0,0.0,100,0.00,,,0.00,,2013-05-29 08:11:00,
2013-05-29 01:21:00,51.0,51.0,-100.00,ENE,74,0.0,0.0,100,0.00,,,0.00,,2013-05-29 08:21:00,
2013-05-29 01:31:00,51.0,51.0,-100.00,ENE,74,0.0,0.0,100,0.00,,,0.00,,2013-05-29 08:31:00,
2013-05-29 01:41:00,51.0,51.0,-100.00,ENE,74,0.0,0.0,100,0.00,,,0.00,,2013-05-29 08:41:00,
2013-05-29 01:51:00,51.0,51.0,-100.00,ENE,74,0.0,0.0,100,0.00,,,0.00,,2013-05-29 08:51:00,
2013-05-29 02:01:00,51.0,51.0,-100.00,ENE,74,0.0,0.0,100,0.00,,,0.00,,2013-05-29 09:01:00,
2013-05-29 02:11:00,51.0,51.0,-100.00,ENE,74,0.0,0.0,100,0.00,,,0.00,,2013-05-29 09:11:00,
2013-05-29 02:21:00,51.0,51.0,-100.00,ENE,74,0.0,0.0,100,0.00,,,0.00,,2013-05-29 09:21:00,
2013-05-29 02:32:00,51.0,51.0,-100.00,ENE,74,0.0,0.0,100,0.00,,,0.00,,2013-05-29 09:32:00,
2013-05-29 02:42:00,51.0,51.0,-100.00,ENE,74,0.0,0.0,100,0.00,,,0.00,,2013-05-29 09:42:00,
2013-05-29 02:52:00,51.0,51.0,-100.00,ENE,74,0.0,0.0,100,0.00,,,0.00,,2013-05-29 09:52:00,
2013-05-29 03:02:00,51.0,51.0,-100.00,ENE,74,0.0,0.0,100,0.00,,,0.00,,2013-05-29 10:02:00,
2013-05-29 03:12:00,51.0,51.0,-100.00,ENE,74,0.0,0.0,100,0.00,,,0.00,,2013-05-29 10:12:00,
2013-05-29 03:22:00,51.0,51.0,-100.00,ENE,74,0.0,0.0,100,0.00,,,0.00,,2013-05-29 10:22:00,
2013-05-29 03:32:00,51.0,51.0,-100.00,ENE,74,0.0,0.0,100,0.00,,,0.00,,2013-05-29 10:32:00,
2013-05-29 03:42:00,51.0,51.0,-100.00,ENE,74,0.0,0.0,100,0.00,,,0.00,,2013-05-29 10:42:00,
2013-05-29 03:52:00,50.0,50.0,-100.00,ENE,74,0.0,0.0,100,0.00,,,0.00,,2013-05-29 10:52:00,
2013-05-29 04:02:00,50.0,50.0,-100.00,ENE,74,0.0,0.0,100,0.00,,,0.00,,2013-05-29 11:02:00,
2013-05-29 04:11:00,50.0,50.0,-100.00,ENE,74,0.0,0.0,100,0.00,,,0.00,,2013-05-29 11:11:00,
2013-05-29 04:21:00,50.0,50.0,-100.00,ENE,74,0.0,0.0,100,0.00,,,0.00,,2013-05-29 11:21:00,
2013-05-29 04:32:00,50.0,50.0,-100.00,ENE,74,0.0,0.0,100,0.00,,,0.00,,2013-05-29 11:32:00,
2013-05-29 04:41:00,50.0,50.0,-100.00,ENE,74,0.0,0.0,100,0.00,,,0.00,,2013-05-29 11:41:00,
2013-05-29 04:51:00,50.0,50.0,-100.00,ENE,74,0.0,0.0,100,0.00,,,0.00,,2013-05-29 11:51:00,
2013-05-29 05:01:00,50.0,50.0,-100.00,ENE,74,0.0,0.0,100,0.00,,,0.00,,2013-05-29 12:01:00,
2013-05-29 05:11:00,50.0,50.0,-100.00,ENE,74,0.0,0.0,100,0.00,,,0.00,,2013-05-29 12:11:00,
2013-05-29 05:21:00,50.0,50.0,-100.00,ENE,74,0.0,0.0,100,0.00,,,0.00,,2013-05-29 12:21:00,
2013-05-29 05:32:00,50.0,50.0,-100.00,ENE,74,0.0,0.0,100,0.00,,,0.00,,2013-05-29 12:32:00,
2013-05-29 05:41:00,50.0,50.0,-100.00,ENE,74,0.0,0.0,100,0.00,,,0.00,,2013-05-29 12:41:00,
2013-05-29 05:51:00,50.0,50.0,-100.00,ENE,74,0.0,0.0,100,0.00,,,0.00,,2013-05-29 12:51:00,
2013-05-29 06:01:00,50.0,50.0,-100.00,ENE,74,0.0,0.0,100,0.00,,,0.00,,2013-05-29 13:01:00,
2013-05-29 06:11:00,50.0,50.0,-100.00,ENE,74,0.0,0.0,100,0.00,,,0.00,,2013-05-29 13:11:00,
2013-05-29 06:21:00,50.0,50.0,-100.00,ENE,74,0.0,0.0,100,0.00,,,0.00,,2013-05-29 13:21:00,
2013-05-29 06:31:00,50.0,50.0,-100.00,ENE,74,0.0,0.0,100,0.00,,,0.00,,2013-05-29 13:31:00,
2013-05-29 06:42:00,50.0,50.0,-100.00,ENE,74,0.0,0.0,100,0.00,,,0.00,,2013-05-29 13:42:00,
2013-05-29 06:52:00,51.0,51.0,-100.00,ENE,74,0.0,0.0,100,0.00,,,0.00,,2013-05-29 13:52:00,
2013-05-29 07:01:00,51.0,51.0,-100.00,ENE,74,0.0,0.0,100,0.00,,,0.00,,2013-05-29 14:01:00,
2013-05-29 07:11:00,51.0,51.0,-100.00,ENE,74,0.0,0.0,100,0.00,,,0.00,,2013-05-29 14:11:00,
2013-05-29 07:21:00,51.0,51.0,-100.00,ENE,74,0.0,0.0,100,0.00,,,0.00,,2013-05-29 14:21:00,
2013-05-29 07:32:00,51.0,51.0,-100.00,ENE,74,0.0,0.0,100,0.00,,,0.00,,2013-05-29 14:32:00,
2013-05-29 07:41:00,51.0,51.0,-100.00,ENE,74,0.0,0.0,100,0.00,,,0.00,,2013-05-29 14:41:00,
2013-05-29 07:51:00,51.0,51.0,-100.00,ENE,74,0.0,0.0,100,0.00,,,0.00,,2013-05-29 14:51:00,
2013-05-29 08:01:00,51.0,51.0,-100.00,ENE,74,0.0,0.0,100,0.00,,,0.00,,2013-05-29 15:01:00,
2013-05-29 08:11:00,51.0,51.0,-100.00,ENE,74,0.0,0.0,100,0.00,,,0.00,,2013-05-29 15:11:00,
2013-05-29 08:21:00,51.0,51.0,-100.00,ENE,74,0.0,0.0,100,0.00,,,0.00,,2013-05-29 15:21:00,
2013-05-29 08:32:00,52.0,52.0,-100.00,ENE,74,0.0,0.0,100,0.00,,,0.00,,2013-05-29 15:32:00,
2013-05-29 08:42:00,52.0,52.0,-100.00,ENE,74,0.0,0.0,100,0.00,,,0.00,,2013-05-29 15:42:00,
2013-05-29 08:53:00,53.0,53.0,-100.00,ENE,74,0.0,0.0,100,0.00,,,0.00,,2013-05-29 15:53:00,
2013-05-29 09:03:00,53.0,53.0,-100.00,ENE,74,0.0,0.0,100,0.00,,,0.00,,2013-05-29 16:03:00,
2013-05-29 09:12:00,53.0,53.0,-100.00,ENE,74,0.0,0.0,100,0.00,,,0.00,,2013-05-29 16:12:00,
2013-05-29 09:22:00,52.0,52.0,-100.00,ENE,74,0.0,0.0,100,0.00,,,0.00,,2013-05-29 16:22:00,
2013-05-29 09:32:00,55.0,55.0,-100.00,ENE,74,0.0,0.0,100,0.00,,,0.00,,2013-05-29 16:32:00,
2013-05-29 09:42:00,55.0,55.0,-100.00,ENE,74,0.0,0.0,100,0.00,,,0.00,,2013-05-29 16:42:00,
2013-05-29 09:52:00,56.0,56.0,-100.00,ENE,74,0.0,0.0,100,0.00,,,0.00,,2013-05-29 16:52:00,
2013-05-29 10:02:00,55.0,55.0,-100.00,ENE,74,0.0,0.0,100,0.00,,,0.00,,2013-05-29 17:02:00,
2013-05-29 10:11:00,55.0,55.0,-100.00,ENE,74,0.0,0.0,100,0.00,,,0.00,,2013-05-29 17:11:00,
2013-05-29 10:21:00,55.0,55.0,-100.00,ENE,74,0.0,0.0,100,0.00,,,0.00,,2013-05-29 17:21:00,
2013-05-29 10:32:00,57.0,57.0,-100.00,ENE,74,0.0,0.0,100,0.00,,,0.00,,2013-05-29 17:32:00,
2013-05-29 10:42:00,57.0,57.0,-100.00,ENE,74,0.0,0.0,100,0.00,,,0.00,,2013-05-29 17:42:00,
2013-05-29 10:52:00,54.0,54.0,-100.00,ENE,74,0.0,0.0,100,0.00,,,0.00,,2013-05-29 17:52:00,
2013-05-29 11:01:00,55.0,55.0,-100.00,ENE,74,0.0,0.0,100,0.00,,,0.00,,2013-05-29 18:01:00,
2013-05-29 11:13:00,56.0,56.0,-100.00,ENE,74,0.0,0.0,100,0.00,,,0.00,,2013-05-29 18:13:00,
2013-05-29 11:21:00,56.0,56.0,-100.00,ENE,74,0.0,0.0,100,0.00,,,0.00,,2013-05-29 18:21:00,
2013-05-29 11:32:00,56.0,56.0,-100.00,ENE,74,0.0,0.0,100,0.00,,,0.00,,2013-05-29 18:32:00,
2013-05-29 11:41:00,56.0,56.0,-100.00,ENE,74,0.0,0.0,100,0.00,,,0.00,,2013-05-29 18:41:00,
2013-05-29 11:51:00,56.0,56.0,-100.00,ENE,74,0.0,0.0,100,0.00,,,0.00,,2013-05-29 18:51:00,
2013-05-29 12:01:00,58.0,58.0,-100.00,ENE,74,0.0,0.0,100,0.00,,,0.00,,2013-05-29 19:01:00,
2013-05-29 12:11:00,58.0,58.0,-100.00,ENE,74,0.0,0.0,100,0.00,,,0.00,,2013-05-29 19:11:00,
2013-05-29 12:21:00,58.0,58.0,-100.00,ENE,74,0.0,0.0,100,0.00,,,0.00,,2013-05-29 19:21:00,
2013-05-29 12:32:00,57.0,57.0,-100.00,ENE,74,0.0,0.0,100,0.00,,,0.00,,2013-05-29 19:32:00,
2013-05-29 12:44:00,58.0,58.0,-100.00,ENE,74,0.0,0.0,100,0.00,,,0.00,,2013-05-29 19:44:00,
2013-05-29 12:53:00,58.0,58.0,-100.00,ENE,74,0.0,0.0,100,0.00,,,0.00,,2013-05-29 19:53:00,
2013-05-29 13:02:00,58.0,58.0,-100.00,ENE,74,0.0,0.0,100,0.00,,,0.00,,2013-05-29 20:02:00,
2013-05-29 13:11:00,58.0,58.0,-100.00,ENE,74,0.0,0.0,100,0.00,,,0.00,,2013-05-29 20:11:00,
2013-05-29 13:22:00,58.0,58.0,-100.00,ENE,74,0.0,0.0,100,0.00,,,0.00,,2013-05-29 20:22:00,
2013-05-29 13:32:00,57.0,57.0,-100.00,ENE,74,0.0,0.0,100,0.00,,,0.00,,2013-05-29 20:32:00,
2013-05-29 13:41:00,57.0,57.0,-100.00,ENE,74,0.0,0.0,100,0.00,,,0.00,,2013-05-29 20:41:00,
2013-05-29 13:52:00,55.0,55.0,-100.00,ENE,74,0.0,0.0,100,0.00,,,0.00,,2013-05-29 20:52:00,
2013-05-29 14:02:00,56.0,56.0,-100.00,ENE,74,0.0,0.0,100,0.00,,,0.00,,2013-05-29 21:02:00,
2013-05-29 14:12:00,56.0,56.0,-100.00,ENE,74,0.0,0.0,100,0.00,,,0.00,,2013-05-29 21:12:00,
2013-05-29 14:22:00,57.0,57.0,-100.00,ENE,74,0.0,0.0,100,0.00,,,0.00,,2013-05-29 21:22:00,
2013-05-29 14:33:00,59.0,59.0,-100.00,ENE,74,0.0,0.0,100,0.00,,,0.00,,2013-05-29 21:33:00,
2013-05-29 14:43:00,55.0,55.0,-100.00,ENE,74,0.0,0.0,100,0.00,,,0.00,,2013-05-29 21:43:00,
2013-05-29 14:53:00,55.0,55.0,-100.00,ENE,74,0.0,0.0,100,0.00,,,0.00,,2013-05-29 21:53:00,
2013-05-29 15:03:00,55.0,55.0,-100.00,ENE,74,0.0,0.0,100,0.00,,,0.00,,2013-05-29 22:03:00,
2013-05-29 15:12:00,55.0,55.0,-100.00,ENE,74,0.0,0.0,100,0.00,,,0.00,,2013-05-29 22:12:00,
2013-05-29 15:22:00,55.0,55.0,-100.00,ENE,74,0.0,0.0,100,0.00,,,0.00,,2013-05-29 22:22:00,
2013-05-29 15:33:00,56.0,56.0,-100.00,ENE,74,0.0,0.0,100,0.00,,,0.00,,2013-05-29 22:33:00,
2013-05-29 15:42:00,57.0,57.0,-100.00,ENE,74,0.0,0.0,100,0.00,,,0.00,,2013-05-29 22:42:00,
2013-05-29 15:53:00,57.0,57.0,-100.00,ENE,74,0.0,0.0,100,0.00,,,0.00,,2013-05-29 22:53:00,
2013-05-29 16:02:00,57.0,57.0,-100.00,ENE,74,0.0,0.0,100,0.00,,,0.00,,2013-05-29 23:02:00,
2013-05-29 16:12:00,57.0,57.0,-100.00,ENE,74,0.0,0.0,100,0.00,,,0.00,,2013-05-29 23:12:00,
2013-05-29 16:21:00,58.0,58.0,-100.00,ENE,74,0.0,0.0,100,0.00,,,0.00,,2013-05-29 23:21:00,
2013-05-29 16:33:00,58.0,58.0,-100.00,ENE,74,0.0,0.0,100,0.00,,,0.00,,2013-05-29 23:33:00,
2013-05-29 16:42:00,58.0,58.0,-100.00,ENE,74,0.0,0.0,100,0.00,,,0.00,,2013-05-29 23:42:00,
2013-05-29 17:01:00,57.0,57.0,-100.00,ENE,74,0.0,0.0,100,0.00,,,0.00,,2013-05-30 00:01:00,
2013-05-29 17:21:00,56.0,56.0,-100.00,ENE,74,0.0,0.0,100,0.00,,,0.00,,2013-05-30 00:21:00,
2013-05-29 17:31:00,56.0,56.0,-100.00,ENE,74,0.0,0.0,100,0.00,,,0.00,,2013-05-30 00:31:00,
2013-05-29 17:41:00,56.0,56.0,-100.00,ENE,74,0.0,0.0,100,0.00,,,0.00,,2013-05-30 00:41:00,
2013-05-29 17:52:00,55.0,55.0,-100.00,ENE,74,0.0,0.0,100,0.00,,,0.00,,2013-05-30 00:52:00,
2013-05-29 18:01:00,55.0,55.0,-100.00,ENE,74,0.0,0.0,100,0.00,,,0.00,,2013-05-30 01:01:00,
2013-05-29 18:11:00,55.0,55.0,-100.00,ENE,74,0.0,0.0,100,0.00,,,0.00,,2013-05-30 01:11:00,
2013-05-29 18:21:00,55.0,55.0,-100.00,ENE,74,0.0,0.0,100,0.00,,,0.00,,2013-05-30 01:21:00,
2013-05-29 18:31:00,55.0,55.0,-100.00,ENE,74,0.0,0.0,100,0.00,,,0.00,,2013-05-30 01:31:00,
2013-05-29 18:41:00,55.0,55.0,-100.00,ENE,74,0.0,0.0,100,0.00,,,0.00,,2013-05-30 01:41:00,
2013-05-29 18:52:00,55.0,55.0,-100.00,ENE,74,0.0,0.0,100,0.00,,,0.00,,2013-05-30 01:52:00,
2013-05-29 19:01:00,55.0,55.0,-100.00,ENE,74,0.0,0.0,100,0.00,,,0.00,,2013-05-30 02:01:00,
2013-05-29 19:11:00,55.0,55.0,-100.00,ENE,74,0.0,0.0,100,0.00,,,0.00,,2013-05-30 02:11:00,
2013-05-29 19:21:00,55.0,55.0,-100.00,ENE,74,0.0,0.0,100,0.00,,,0.00,,2013-05-30 02:21:00,
2013-05-29 19:32:00,56.0,56.0,-100.00,ENE,74,0.0,0.0,100,0.00,,,0.00,,2013-05-30 02:32:00,
2013-05-29 19:42:00,56.0,56.0,-100.00,ENE,74,0.0,0.0,100,0.00,,,0.00,,2013-05-30 02:42:00,
2013-05-29 19:52:00,56.0,56.0,-100.00,ENE,74,0.0,0.0,100,0.00,,,0.00,,2013-05-30 02:52:00,
2013-05-29 20:01:00,55.0,55.0,-100.00,ENE,74,0.0,0.0,100,0.00,,,0.00,,2013-05-30 03:01:00,
2013-05-29 20:11:00,55.0,55.0,-100.00,ENE,74,0.0,0.0,100,0.00,,,0.00,,2013-05-30 03:11:00,
2013-05-29 20:21:00,55.0,55.0,-100.00,ENE,74,0.0,0.0,100,0.00,,,0.00,,2013-05-30 03:21:00,
2013-05-29 20:32:00,54.0,54.0,-100.00,ENE,74,0.0,0.0,100,0.00,,,0.00,,2013-05-30 03:32:00,
2013-05-29 20:43:00,54.0,54.0,-100.00,ENE,74,0.0,0.0,100,0.00,,,0.00,,2013-05-30 03:43:00,
2013-05-29 20:53:00,54.0,54.0,-100.00,ENE,74,0.0,0.0,100,0.00,,,0.00,,2013-05-30 03:53:00,
2013-05-29 21:02:00,53.0,53.0,-100.00,ENE,74,0.0,0.0,100,0.00,,,0.00,,2013-05-30 04:02:00,
2013-05-29 21:12:00,53.0,53.0,-100.00,ENE,74,0.0,0.0,100,0.00,,,0.00,,2013-05-30 04:12:00,
2013-05-29 21:22:00,53.0,53.0,-100.00,ENE,74,0.0,0.0,100,0.00,,,0.00,,2013-05-30 04:22:00,
2013-05-29 21:32:00,53.0,53.0,-100.00,ENE,74,0.0,0.0,100,0.00,,,0.00,,2013-05-30 04:32:00,
2013-05-29 21:42:00,53.0,53.0,-100.00,ENE,74,0.0,0.0,100,0.00,,,0.00,,2013-05-30 04:42:00,
2013-05-29 21:53:00,53.0,53.0,-100.00,ENE,74,0.0,0.0,100,0.00,,,0.00,,2013-05-30 04:53:00,
2013-05-29 22:02:00,52.0,52.0,-100.00,ENE,74,0.0,0.0,100,0.00,,,0.00,,2013-05-30 05:02:00,
2013-05-29 22:12:00,52.0,52.0,-100.00,ENE,74,0.0,0.0,100,0.00,,,0.00,,2013-05-30 05:12:00,
2013-05-29 22:21:00,52.0,52.0,-100.00,ENE,74,0.0,0.0,100,0.00,,,0.00,,2013-05-30 05:21:00,
2013-05-29 22:32:00,51.0,51.0,-100.00,ENE,74,0.0,0.0,100,0.00,,,0.00,,2013-05-30 05:32:00,
2013-05-29 22:42:00,51.0,51.0,-100.00,ENE,74,0.0,0.0,100,0.00,,,0.00,,2013-05-30 05:42:00,
2013-05-29 22:52:00,51.0,51.0,-100.00,ENE,74,0.0,0.0,100,0.00,,,0.00,,2013-05-30 05:52:00,
2013-05-29 23:01:00,51.0,51.0,-100.00,ENE,74,0.0,0.0,100,0.00,,,0.00,,2013-05-30 06:01:00,
2013-05-29 23:12:00,51.0,51.0,-100.00,ENE,74,0.0,0.0,100,0.00,,,0.00,,2013-05-30 06:12:00,
2013-05-29 23:21:00,50.0,50.0,-100.00,ENE,74,0.0,0.0,100,0.00,,,0.00,,2013-05-30 06:21:00,
2013-05-29 23:32:00,50.0,50.0,-100.00,ENE,74,0.0,0.0,100,0.00,,,0.00,,2013-05-30 06:32:00,
2013-05-29 23:41:00,50.0,50.0,-100.00,ENE,74,0.0,0.0,100,0.00,,,0.00,,2013-05-30 06:41:00,
2013-05-29 23:51:00,51.0,51.0,-100.00,ENE,74,0.0,0.0,100,0.00,,,0.00,,2013-05-30 06:51:00,